Preview of NWS' New Version of Forecast
This preview is not operational and should not be used for support decisions.

Regional Weather Roundup (RWR)

Issued by National Weather Service (NWS)

                            
000
ASUS45 KABQ 231601
RWRNM 
NEW MEXICO REGIONAL WEATHER ROUNDUP
NATIONAL WEATHER SERVICE ALBUQUERQUE NM
1000 AM MDT FRI AUG 23 2019

NOTE: "FAIR" MEANS FEW OR NO CLOUDS BELOW 12,000 FEET AGL WITH NO
       SIGNIFICANT WEATHER OR OBSTRUCTIONS TO VISION.

      THIS PRODUCT IS RELEASED AS TWO VERSIONS.  ONE VERSION NEAR
      THE TOP OF THE HOUR CONTAINING PRELIMINARY DATA FROM ALBUQUERQUE
      AND OTHER STATIONS.  A FINAL VERSION WITH ADDITIONAL DATA IS 
      ISSUED ABOUT 10 MINUTES AFTER THE HOUR.
 
NMZ501-503-504-510>518-231700-
NORTHWEST PLATEAU/NORTHCENTRAL MOUNTAINS
  
CITY           SKY/WX    TMP DP  RH WIND       PRES   REMARKS
FARMINGTON     FAIR      74  37  26 E7        30.12R                  
LOS ALAMOS       N/A     69  48  47 CALM      30.26S                  
SANTA FE       FAIR      75  51  43 SW5       30.20R                  
TAOS           FAIR      70  45  40 CALM      30.28R                  
ANGEL FIRE     FAIR      55  44  68 CALM      30.35F                  

$$
NMZ402-403-502-505>509-231700-
WESTCENTRAL MOUNTAINS/SOUTHWEST MOUNTAINS
  
CITY           SKY/WX    TMP DP  RH WIND       PRES   REMARKS
GALLUP         FAIR      75  41  29 VRB6      30.23R                  
GRANTS         PTSUNNY   77  41  27 N7        30.24S                  
SILVER CITY    FAIR      80  52  37 NW9       30.15R                  

$$
NMZ407-409-411-412-231700-
SOUTHERN DESERTS
  
CITY           SKY/WX    TMP DP  RH WIND       PRES   REMARKS
DEMING         FAIR      79  61  53 SW10      30.07S                  
LAS CRUCES     FAIR      79  59  49 S5        30.10R                  
HOLLOMAN AFB   FAIR      83  57  41 S14       30.07S                  
ALAMOGORDO     FAIR      82  55  39 S13G21    30.07S                  
T OR C         FAIR      80  55  42 CALM      30.10S                  

$$
NMZ519>523-231700-
CENTRAL VALLEYS/CENTRAL HIGHLANDS
  
CITY           SKY/WX    TMP DP  RH WIND       PRES   REMARKS
ALBUQUERQUE    FAIR      77  52  41 CALM      30.15R                  
DOUBLE EAGLE   MOSUNNY   75  52  43 VRB5      30.18R                  
CLINES CORNERS FAIR      73  49  42 NW13      30.24F                  
BELEN          FAIR      80  46  30 W9        30.14S                  
SOCORRO        FAIR      77  52  42 CALM      30.12R                  

$$
NMZ524>526-539-540-231700-
SOUTHCENTRAL MOUNTAINS
  
CITY           SKY/WX    TMP DP  RH WIND       PRES   REMARKS
RUIDOSO        FAIR      72  54  53 N6        30.24S                  

$$
NMZ527>531-231700-
NORTHEAST HIGHLANDS/NORTHEAST PLAINS
  
CITY           SKY/WX    TMP DP  RH WIND       PRES   REMARKS
LAS VEGAS      FAIR      72  50  45 SW5       30.20S                  
RATON          FAIR      66  48  52 E3        30.15S                  
CLAYTON        FAIR      79  56  45 SW15G26   30.06S                  

$$
NMZ532>537-231700-
EASTCENTRAL PLAINS
  
CITY           SKY/WX    TMP DP  RH WIND       PRES   REMARKS
SANTA ROSA     FAIR      77  61  58 S10       30.09S                  
TUCUMCARI      FAIR      79  61  53 SW13      30.04F                  
CANNON AFB     NOT AVBL                                               
CLOVIS AIRPORT FAIR      77  62  59 SW17      30.08S                  

$$
NMZ028-029-538-231700-
SOUTHEAST PLAINS
  
CITY           SKY/WX    TMP DP  RH WIND       PRES   REMARKS
ROSWELL        FAIR      81  58  45 S12       30.02S                  
ARTESIA        FAIR      81  61  50 S6        30.04R                  
CARLSBAD       FAIR      81  59  47 S7        29.99S                  
HOBBS          MOSUNNY   81  61  50 S9G16     30.03S                  


$$